Date_and_time,latitude,longitude,wind_speed,RelWindDirFrom,WindDirFrom,air_pressure,air_temperature,relative_humidity,Temp,platform_speed_wrt_ground,air_pressure_at_mean_sea_level,platform_orientation
2019-08-17 00:00,50.6304583333333,-96.9807883333333,7.6,9.7,140,976.08,24.9,48,22.08,0.0,1001.25,38.0
2019-08-17 00:10,50.6304583333333,-96.9807883333333,6.4,8.2,136,976.03,24.6,52,22.04,0.0,1001.21,38.0
2019-08-17 00:20,50.63045,-96.9807933333333,6.4,8.0,139,975.98,24.3,52,22.09,0.0,1001.17,38.0
2019-08-17 00:30,50.63045,-96.9807833333333,5.4,6.1,139,975.96,24.3,51,22.11,0.0,1001.20,38.0
2019-08-17 00:40,50.6304683333333,-96.9807983333333,4.5,5.1,148,975.98,24.6,49,22.10,0.0,1001.22,38.0
2019-08-17 00:50,50.6304583333333,-96.9807833333333,3.7,4.5,153,975.97,24.1,56,22.11,0.0,1001.22,38.0
2019-08-17 01:00,50.6304566666667,-96.9807783333333,3.7,4.6,158,975.87,24.1,55,22.12,0.0,1001.12,360.0
2019-08-17 01:10,50.630455,-96.98078,3.0,3.7,163,975.90,23.4,65,22.13,0.0,1001.17,360.0
2019-08-17 01:20,50.630455,-96.98078,3.5,4.2,166,976.00,23.1,64,22.12,0.0,1001.29,360.0
2019-08-17 01:30,50.6304566666667,-96.9807816666667,3.3,4.1,169,976.08,23.4,56,22.10,0.0,1001.36,360.0
2019-08-17 01:40,50.6304566666667,-96.98078,4.0,4.6,146,976.07,23.6,52,22.08,0.0,1001.33,360.0
2019-08-17 01:50,50.630455,-96.980775,7.2,8.6,136,976.11,23.4,63,22.05,0.0,1001.38,360.0
2019-08-17 02:00,50.6304516666667,-96.9807816666667,6.9,8.3,153,976.11,23.0,65,22.06,0.0,1001.41,90.0
2019-08-17 02:10,50.6304533333333,-96.9807816666667,6.4,7.5,166,976.16,22.7,70,22.09,0.0,1001.49,90.0
2019-08-17 02:20,50.6304533333333,-96.98078,6.2,7.1,162,976.17,22.4,72,22.13,0.0,1001.51,90.0
2019-08-17 02:30,50.6304533333333,-96.98078,6.9,8.0,162,976.10,22.4,75,22.15,0.0,1001.43,90.0
2019-08-17 02:40,50.6304533333333,-96.98078,6.3,7.0,172,976.08,22.2,73,22.16,0.0,1001.43,90.0
2019-08-17 02:50,50.6304383333333,-96.98074,6.8,7.5,165,976.05,21.9,73,22.17,0.0,1001.42,90.0
2019-08-17 03:00,50.6304533333333,-96.9807716666667,7.7,10.1,161,975.92,21.9,77,22.19,0.0,1001.31,113.6
2019-08-17 03:10,50.6304516666667,-96.9807716666667,9.4,10.7,165,975.77,22.3,73,22.20,0.0,1001.16,113.6
2019-08-17 03:20,50.6304533333333,-96.98077,9.1,10.9,165,975.80,22.2,73,22.21,0.0,1001.17,113.6
2019-08-17 03:30,50.6304533333333,-96.9807716666667,9.7,11.5,166,975.72,22.0,74,22.22,0.0,1001.09,113.6
2019-08-17 03:40,50.630455,-96.9807716666667,10.3,12.3,163,975.59,22.0,74,22.24,0.0,1000.97,113.6
2019-08-17 03:50,50.6304566666667,-96.9807716666667,10.5,13.9,159,975.47,22.0,77,22.24,0.0,1000.87,113.6
2019-08-17 04:00,50.6304566666667,-96.9807716666667,10.6,12.7,161,975.31,22.0,77,22.24,0.0,1000.71,90.0
2019-08-17 04:10,50.6304566666667,-96.9807733333333,10.4,13.9,157,975.14,21.8,79,22.24,0.0,1000.56,90.0
2019-08-17 04:20,50.6304566666667,-96.9807716666667,8.5,12.7,176,975.45,21.8,77,22.24,0.0,1000.88,90.0
2019-08-17 04:30,50.6304566666667,-96.9807716666667,8.1,13.4,293,976.20,21.6,65,22.24,0.0,1001.67,90.0
2019-08-17 04:40,50.630455,-96.9807716666667,5.4,9.3,304,976.31,20.7,61,22.23,0.0,1001.83,90.0
2019-08-17 04:50,50.630455,-96.9807733333333,4.0,6.2,322,976.10,20.2,67,22.21,0.0,1001.64,90.0
2019-08-17 05:00,50.630455,-96.9807733333333,5.3,10.6,232,976.63,19.7,72,22.20,0.0,1002.19,90.0
2019-08-17 05:10,50.630455,-96.9807733333333,7.1,11.0,230,977.28,19.4,72,22.19,0.0,1002.87,90.0
2019-08-17 05:20,50.6304683333333,-96.9807883333333,5.9,11.4,251,977.53,18.8,79,22.19,0.0,1003.16,90.0
2019-08-17 05:30,50.6304616666667,-96.9807833333333,4.5,6.8,345,977.06,18.8,82,22.18,0.0,1002.68,90.0
2019-08-17 05:40,50.6304633333333,-96.9807816666667,6.9,8.5,51,976.54,19.2,84,22.19,0.0,1002.13,90.0
2019-08-17 05:50,50.6304616666667,-96.98078,11.4,14.9,31,976.00,19.6,83,22.19,0.0,1001.56,90.0
2019-08-17 06:00,50.63046,-96.98078,12.9,14.2,49,975.64,19.7,85,22.19,0.0,1001.19,305.3
2019-08-17 06:10,50.63046,-96.98078,12.3,14.2,58,975.52,19.9,85,22.20,0.0,1001.06,305.3
2019-08-17 06:20,50.63046,-96.9807833333333,14.0,16.5,73,975.14,20.1,84,22.18,0.0,1000.68,305.3
2019-08-17 06:30,50.6304616666667,-96.9807833333333,14.3,16.1,78,974.88,20.2,84,22.06,0.0,1000.44,305.3
2019-08-17 06:40,50.6304816666667,-96.9808083333333,12.9,15.3,85,974.58,20.2,85,21.85,0.0,1000.15,305.3
2019-08-17 06:50,50.6304616666667,-96.9807816666667,14.6,17.7,94,974.41,20.3,85,21.85,0.0,1000.00,305.3
2019-08-17 07:00,50.63046,-96.9807816666667,15.8,18.0,95,974.31,20.4,85,21.84,0.0,999.90,305.3
2019-08-17 07:10,50.63046,-96.980785,15.8,21.4,103,974.12,20.6,86,21.85,0.0,999.73,305.3
2019-08-17 07:20,50.6304583333333,-96.9807783333333,14.9,18.4,109,974.04,20.8,83,21.81,0.0,999.63,305.3
2019-08-17 07:30,50.6304216666667,-96.9807333333333,13.7,15.6,119,973.96,21.0,82,21.84,0.0,999.53,305.3
2019-08-17 07:40,50.6304583333333,-96.9807683333333,12.5,16.0,134,973.94,20.8,78,21.87,0.0,999.49,305.3
2019-08-17 07:50,50.63046,-96.98077,13.3,16.5,138,973.95,20.1,85,21.86,0.0,999.53,305.3
2019-08-17 08:00,50.6304583333333,-96.9807733333333,13.7,17.7,143,973.87,19.7,87,21.85,0.0,999.46,360.0
2019-08-17 08:10,50.6304566666667,-96.9807766666667,14.0,17.3,147,973.94,19.5,90,21.83,0.0,999.53,360.0
2019-08-17 08:20,50.6304566666667,-96.9807783333333,13.5,17.2,153,973.87,19.5,90,21.82,0.0,999.46,360.0
2019-08-17 08:30,50.6304566666667,-96.98078,12.3,16.7,166,973.88,19.6,89,21.78,0.0,999.46,360.0
2019-08-17 08:40,50.6304583333333,-96.9807783333333,11.1,14.3,173,973.88,19.5,88,21.81,0.0,999.47,360.0
2019-08-17 08:50,50.6304583333333,-96.9807766666667,9.4,13.7,180,973.92,19.3,89,21.82,0.0,999.51,360.0
2019-08-17 09:00,50.63046,-96.980775,7.3,9.6,195,974.00,18.9,86,21.79,0.0,999.60,90.0
2019-08-17 09:10,50.63046,-96.9807766666667,7.0,8.9,206,974.30,18.4,89,21.77,0.0,999.92,90.0
2019-08-17 09:20,50.63046,-96.9807766666667,6.0,8.6,210,974.32,17.9,90,21.78,0.0,999.96,90.0
2019-08-17 09:30,50.63046,-96.9807766666667,6.8,9.1,214,974.43,17.8,87,21.80,0.0,1000.08,90.0
2019-08-17 09:40,50.63046,-96.9807766666667,5.6,9.4,229,974.34,17.8,86,21.80,0.0,1000.02,90.0
2019-08-17 09:50,50.63046,-96.9807766666667,4.1,6.6,246,974.00,17.8,85,21.76,0.0,999.69,90.0
2019-08-17 10:00,50.6304583333333,-96.9807766666667,5.7,8.6,253,974.00,17.9,86,21.75,0.0,999.69,90.0
2019-08-17 10:10,50.63046,-96.980775,6.3,10.7,257,974.06,17.9,87,21.77,0.0,999.75,90.0
2019-08-17 10:20,50.63046,-96.980775,4.6,7.7,273,973.72,17.9,89,21.79,0.0,999.40,90.0
2019-08-17 10:30,50.6304466666667,-96.9807366666667,6.7,10.3,270,973.80,17.8,89,21.81,0.0,999.50,90.0
2019-08-17 10:40,50.63045,-96.98075,7.2,12.4,270,973.91,17.6,90,21.80,0.0,999.62,90.0
2019-08-17 10:50,50.63046,-96.9807666666667,9.7,15.1,292,973.56,17.6,89,21.81,0.0,999.28,90.0
2019-08-17 11:00,50.630465,-96.980775,9.3,14.3,291,973.51,17.6,88,21.82,0.0,999.26,360.0
2019-08-17 11:10,50.630465,-96.98078,7.7,12.3,282,973.78,17.6,88,21.81,0.0,999.55,360.0
2019-08-17 11:20,50.6304533333333,-96.9807783333333,6.3,12.8,267,974.22,17.4,89,21.79,0.0,1000.02,360.0
2019-08-17 11:30,50.6304516666667,-96.980775,5.7,8.9,256,974.39,17.3,90,21.76,0.0,1000.20,360.0
2019-08-17 11:40,50.63045,-96.9807716666667,5.4,8.0,244,974.59,17.1,91,21.74,0.0,1000.41,360.0
2019-08-17 11:50,50.6304516666667,-96.98077,4.5,6.8,231,974.74,17.0,93,21.73,0.0,1000.56,360.0
2019-08-17 12:00,50.6304533333333,-96.9807666666667,4.2,6.0,209,974.80,17.0,93,21.71,0.0,1000.63,167.4
2019-08-17 12:10,50.630455,-96.98077,3.7,5.0,221,974.97,17.0,94,21.70,0.0,1000.80,167.4
2019-08-17 12:20,50.630455,-96.9807683333333,4.5,6.8,216,975.18,17.0,94,21.68,0.0,1001.03,167.4
2019-08-17 12:30,50.6304533333333,-96.9807716666667,5.1,7.8,209,975.38,17.0,93,21.69,0.0,1001.23,167.4
2019-08-17 12:40,50.6304533333333,-96.9807716666667,4.2,6.3,218,975.50,17.2,92,21.71,0.0,1001.35,167.4
2019-08-17 12:50,50.6304516666667,-96.9807733333333,4.6,6.7,217,975.58,17.1,91,21.73,0.0,1001.44,167.4
2019-08-17 13:00,50.6304516666667,-96.9807716666667,4.8,6.3,216,975.81,17.1,91,21.74,0.0,1001.67,142.0
2019-08-17 13:10,50.6304516666667,-96.9807716666667,4.9,7.4,212,975.92,17.2,90,21.74,0.0,1001.79,142.0
2019-08-17 13:20,50.6304516666667,-96.9807716666667,4.7,6.7,215,976.01,17.3,89,21.74,0.0,1001.89,142.0
2019-08-17 13:30,50.63045,-96.98077,5.1,7.7,247,976.01,17.6,85,21.74,0.0,1001.87,142.0
2019-08-17 13:40,50.63045,-96.98077,5.2,7.7,240,976.25,17.7,84,21.73,0.0,1002.13,142.0
2019-08-17 13:50,50.6304683333333,-96.980795,4.5,6.9,238,976.17,17.8,83,21.72,0.0,1002.03,142.0
2019-08-17 14:00,50.6304566666667,-96.9807866666667,6.0,10.1,239,976.31,17.8,82,21.74,0.0,1002.18,211.1
2019-08-17 14:10,50.6304633333333,-96.980765,5.5,8.8,241,976.38,17.7,79,21.76,0.0,1002.25,211.1
2019-08-17 14:20,50.63044,-96.98078,5.5,8.5,238,976.27,17.9,76,21.78,0.0,1002.14,211.1
2019-08-17 14:30,50.630465,-96.980785,6.3,9.8,229,976.41,18.0,74,21.78,0.0,1002.26,211.1
2019-08-17 14:40,50.6304533333333,-96.980785,6.5,10.0,255,976.49,18.5,71,21.78,0.0,1002.32,211.1
2019-08-17 14:50,50.63045,-96.9807833333333,7.0,14.4,249,976.83,19.0,67,21.79,0.0,1002.65,211.1
2019-08-17 15:00,50.6304516666667,-96.9807833333333,6.2,10.9,251,977.00,19.3,64,21.83,0.0,1002.81,270.0
2019-08-17 15:10,50.6304516666667,-96.98078,6.3,10.1,245,977.00,19.5,62,21.86,0.0,1002.79,270.0
2019-08-17 15:20,50.6304516666667,-96.98078,5.7,9.8,247,977.21,19.6,62,21.88,0.0,1003.00,270.0
2019-08-17 15:30,50.63045,-96.9807816666667,6.4,9.3,231,977.27,19.6,61,21.92,0.0,1003.06,270.0
2019-08-17 15:40,50.6304483333333,-96.9807733333333,6.2,10.6,238,977.27,20.0,59,21.94,0.0,1003.03,270.0
2019-08-17 15:50,50.6304483333333,-96.98078,7.7,11.5,260,977.27,20.3,54,21.95,0.0,1003.02,270.0
2019-08-17 16:00,50.6304533333333,-96.980785,6.6,12.4,262,977.29,20.5,54,21.95,0.0,1003.03,270.0
2019-08-17 16:10,50.630445,-96.9807783333333,7.9,13.5,254,977.20,20.4,54,22.00,0.0,1002.94,270.0
2019-08-17 16:20,50.630445,-96.9807733333333,8.7,15.7,243,977.27,20.6,53,22.04,0.0,1003.00,270.0
2019-08-17 16:30,50.6304916666667,-96.9808116666667,8.0,15.3,245,977.41,20.6,53,22.08,0.0,1003.11,270.0
2019-08-17 16:40,50.63045,-96.9807866666667,10.0,16.3,241,977.59,20.4,52,22.11,0.0,1003.29,270.0
2019-08-17 16:50,50.6304566666667,-96.9807766666667,7.5,11.8,251,977.41,20.4,53,22.12,0.0,1003.09,270.0
2019-08-17 17:00,50.6304616666667,-96.9807816666667,6.8,10.8,253,977.39,20.5,54,22.14,0.0,1003.06,360.0
2019-08-17 17:10,50.6304516666667,-96.9807966666667,7.9,12.7,221,977.35,20.6,53,22.17,0.0,1003.01,360.0
2019-08-17 17:20,50.6304516666667,-96.980795,9.1,14.7,224,977.34,20.5,52,22.17,0.0,1002.99,360.0
2019-08-17 17:30,50.630455,-96.9807933333333,10.1,16.9,214,977.22,20.6,50,22.16,0.0,1002.86,360.0
2019-08-17 17:40,50.6304533333333,-96.98079,9.6,14.1,222,977.12,20.8,49,22.15,0.0,1002.73,360.0
2019-08-17 17:50,50.6304516666667,-96.9807883333333,7.4,12.2,202,976.95,20.8,51,22.15,0.0,1002.54,360.0
2019-08-17 18:00,50.6304516666667,-96.9807866666667,7.4,13.3,238,976.91,21.1,49,22.16,0.0,1002.50,270.0
2019-08-17 18:10,50.6304533333333,-96.9807866666667,8.0,12.8,227,976.95,21.3,49,22.16,0.0,1002.52,270.0
2019-08-17 18:20,50.6304533333333,-96.9807883333333,9.8,15.9,223,976.92,21.3,46,22.17,0.0,1002.48,270.0
2019-08-17 18:30,50.6304516666667,-96.9807816666667,9.8,17.1,228,976.87,21.2,46,22.19,0.0,1002.46,270.0
2019-08-17 18:40,50.630455,-96.9807816666667,9.5,14.6,224,976.99,21.3,46,22.21,0.0,1002.57,270.0
2019-08-17 18:50,50.63045,-96.98075,7.1,13.3,237,977.03,21.5,46,22.23,0.0,1002.60,270.0
2019-08-17 19:00,50.630455,-96.9807816666667,12.3,16.6,213,977.17,21.4,46,22.26,0.0,1002.75,0.0
2019-08-17 19:10,50.6304583333333,-96.9807866666667,9.0,13.2,231,977.27,21.5,47,22.28,0.0,1002.84,0.0
2019-08-17 19:20,50.63044,-96.980795,10.7,21.2,215,976.99,21.9,47,22.30,0.0,1002.53,0.0
2019-08-17 19:30,50.6304416666667,-96.9807866666667,12.5,18.5,214,976.98,21.7,45,22.31,0.0,1002.52,0.0
2019-08-17 19:40,50.63043,-96.9807733333333,11.7,16.8,234,977.05,21.9,44,22.31,0.0,1002.59,0.0
2019-08-17 19:50,50.63044,-96.980795,11.8,16.7,225,977.08,21.6,47,22.31,0.0,1002.61,0.0
2019-08-17 20:00,50.630445,-96.98078,10.1,14.6,219,977.12,21.3,49,22.31,0.0,1002.67,360.0
2019-08-17 20:10,50.63045,-96.9807816666667,13.1,18.0,207,977.07,21.3,45,22.31,0.0,1002.61,360.0
2019-08-17 20:20,50.6304466666667,-96.9807783333333,11.3,16.6,215,977.25,21.2,44,22.31,0.0,1002.81,360.0
2019-08-17 20:30,50.6304466666667,-96.9807783333333,12.7,18.9,216,977.23,21.0,45,22.31,0.0,1002.79,360.0
2019-08-17 20:40,50.6304466666667,-96.98078,12.9,18.7,220,977.45,20.6,46,22.29,0.0,1003.03,360.0
2019-08-17 20:50,50.6304483333333,-96.9807816666667,13.2,19.5,226,977.67,20.1,46,22.28,0.0,1003.27,360.0
2019-08-17 21:00,50.6304466666667,-96.9807816666667,12.9,19.3,224,977.78,19.7,48,22.27,0.0,1003.41,167.4
2019-08-17 21:10,50.6304466666667,-96.98078,11.2,17.9,229,977.83,19.3,50,22.25,0.0,1003.45,167.4
2019-08-17 21:20,50.63045,-96.9807816666667,13.2,18.0,231,977.92,18.9,50,22.23,0.0,1003.58,167.4
2019-08-17 21:30,50.6304516666667,-96.9807766666667,10.7,14.9,231,978.02,18.7,52,22.21,0.0,1003.68,167.4
2019-08-17 21:40,50.6304533333333,-96.9807766666667,11.0,15.4,228,978.01,18.4,51,22.20,0.0,1003.69,167.4
2019-08-17 21:50,50.6304533333333,-96.9807766666667,11.0,16.4,229,977.98,18.4,52,22.18,0.0,1003.68,167.4
2019-08-17 22:00,50.6304516666667,-96.9807766666667,9.8,14.9,229,977.71,18.4,52,22.16,0.0,1003.40,90.0
2019-08-17 22:10,50.6304516666667,-96.980775,9.0,13.6,218,977.51,18.5,54,22.13,0.0,1003.20,90.0
2019-08-17 22:20,50.6304516666667,-96.980775,10.6,16.2,220,977.49,18.5,53,22.12,0.0,1003.19,90.0
2019-08-17 22:30,50.6304583333333,-96.9807783333333,10.6,17.2,227,977.52,18.4,51,22.10,0.0,1003.23,90.0
2019-08-17 22:40,50.6304533333333,-96.9807783333333,11.9,17.0,233,977.55,18.3,50,22.08,0.0,1003.29,90.0
2019-08-17 22:50,50.6304566666667,-96.980775,12.0,17.7,231,977.58,18.2,50,22.06,0.0,1003.34,90.0
2019-08-17 23:00,50.6304566666667,-96.98078,12.7,18.6,226,977.48,18.3,50,22.06,0.0,1003.26,360.0
2019-08-17 23:10,50.6304616666667,-96.98079,12.1,18.4,224,977.43,18.6,50,22.05,0.0,1003.21,360.0
2019-08-17 23:20,50.6304583333333,-96.980785,11.9,17.4,219,977.27,18.8,49,22.04,0.0,1003.05,360.0
2019-08-17 23:30,50.6304466666667,-96.9807766666667,10.3,18.1,238,977.20,19.2,48,22.04,0.0,1002.97,360.0
2019-08-17 23:40,50.6304516666667,-96.9807833333333,9.1,15.0,240,976.90,19.2,48,22.05,0.0,1002.66,360.0
